Regional Weather Roundup
Issued by NWS San Diego, CA

Home | Current Version | Previous Version | Text Only | Print | Product List | Glossary On
Versions: 1 2 3 4 5 6 7 8 9 10 11 12 13 14 15 16 17 18 19 20 21 22 23 24 25 26 27 28 29 30 31 32 33 34 35 36 37 38 39 40 41 42 43 44 45 46 47 48 49 50
000
ASUS46 KSGX 271011
RWRSGX

SAN DIEGO HOURLY WEATHER ROUNDUP
NATIONAL WEATHER SERVICE SAN DIEGO CA
300 AM PDT FRI MAR 27 2015

NOTE: "FAIR" INDICATES FEW OR NO CLOUDS BELOW 12,000 FEET WITH NO
SIGNIFICANT WEATHER AND/OR OBSTRUCTIONS TO VISIBILITY.

CAZ042-043-060-061-PZZ750-775-271100-

GREATER SAN DIEGO AREA

CITY           SKY/WX    TMP DP  RH WIND       PRES   REMARKS
LINDBERGH FLD  CLEAR     66  50  56 CALM      30.05F
POINT LOMA       N/A     64  59  84 NW3         N/A
CHULA VISTA      N/A     59  49  68 CALM      29.97F
IMPERIAL BEACH CLEAR     54  47  77 CALM      30.05S
BROWN FIELD    CLEAR     60  46  59 SE6       30.05S
MIRAMAR MCAS   CLEAR     61  36  39 E7        30.04F
MONTGOMERY FLD CLEAR     63  40  42 SE3       30.05F

$$

NORTH SAN DIEGO COUNTY

CITY           SKY/WX    TMP DP  RH WIND       PRES   REMARKS
CAMP PENDLETON CLEAR     52  41  66 CALM      30.05R
OCEANSIDE AP   CLEAR     52  44  74 CALM      30.04S
VISTA            N/A     58  43  57 CALM      30.02S
CARLSBAD       CLEAR     63  46  54 CALM      30.04R
FALLBROOK        N/A     68  35  29 CALM      30.05S
SAN MARCOS       N/A     65  42  44 CALM      30.02S
POWAY            N/A     55  40  58 CALM      30.06S

$$

EAST SAN DIEGO COUNTY

CITY           SKY/WX    TMP DP  RH WIND       PRES   REMARKS
RAMONA         CLEAR     47  35  63 SE3       30.08F
SANTEE LAKES     N/A     55  41  58 CALM      30.05F
LA MESA          N/A     66  37  35 E3        29.98S
DESCANSO N       N/A     61  25  25 CALM      29.95F
MT. LAGUNA OBS   N/A     56  17  21 E9        29.83S
CAMPO            N/A     45  25  45 NE6       30.11F

$$

ORANGE COUNTY AND THE LOS ANGELES BASIN

CITY           SKY/WX    TMP DP  RH WIND       PRES   REMARKS
JOHN WAYNE AP  CLEAR     65  48  54 CALM      30.03S
LAKE FOREST FR   N/A     69  29  22 NE5       29.91S
SANTA ANA        N/A     60  47  61 CALM      29.98F
HUNTINGTON BCH   N/A     57  55  94 CALM      30.05S
LOS ALAMITOS   FAIR      61  54  78 CALM      30.03S
FULLERTON      CLEAR     63  43  48 CALM      30.02F
LONG BEACH     CLEAR     63  52  67 CALM      30.03S
L.A. AP        CLEAR     64  50  60 CALM      30.04S
L.A. DOWNTOWN  CLEAR     66  43  43 NE3       30.03S

$$

THE INLAND EMPIRE

CITY           SKY/WX    TMP DP  RH WIND       PRES   REMARKS
CORONA         CLEAR     48  39  71 CALM      30.06F
CHINO          CLEAR     55  44  66 CALM      30.07S
ONTARIO        CLEAR     65  36  34 NE5       30.06F
RIVERSIDE AP   CLEAR     63  39  41 E6        30.06F
MARCH ARB      CLEAR     49  31  50 CALM      30.09S
HORSETHIEF CYN   N/A     63  32  31 SE2       30.03S
MENIFEE          N/A     57  45  63 CALM      30.13S
HEMET EAST       N/A     66  23  19 CALM      30.06S
FRENCH VALLEY  FAIR      57  37  47 CALM      30.09S
TEMECULA         N/A     59  42  53 CALM      30.05S

$$

SAN BERNARDINO AND RIVERSIDE COUNTY MOUNTAINS

CITY           SKY/WX    TMP DP  RH WIND       PRES   REMARKS
BIG BEAR AP    CLEAR     30  23  74 CALM      30.36F
ANGELUS OAKS     N/A     49  28  43 CALM      30.05S

$$

SOUTHERN DESERT INCLUDING THE COACHELLA VALLEY

CITY           SKY/WX    TMP DP  RH WIND       PRES   REMARKS
PALM SPRINGS   CLEAR     71  28  20 NW7       30.06F
THOUSAND PALMS   N/A     67  28  23 CALM      30.03S
THERMAL        CLEAR     59  39  47 N5        30.00F
BLYTHE         CLEAR     62  28  27 SW5       30.04F
IMPERIAL AP    CLEAR     57  37  47 NW5       30.00F
EL CENTRO NAS  CLEAR     62  24  23 W7        30.01S
YUMA AZ        CLEAR     70  27  20 NE6       30.01F

$$

UPPER DESERT

CITY           SKY/WX    TMP DP  RH WIND       PRES   REMARKS
VICTORVILLE AP CLEAR     52  25  35 SW7       30.17S
HESPERIA         N/A     56  29  35 W7        30.23F
APPLE VALLEY     N/A     46  35  65 CALM      30.21F
PALMDALE       CLEAR     51  30  44 S7        30.17S
LANCASTER      CLEAR     48  31  51 W6        30.16F
EDWARDS AFB    CLEAR     48  25  40 W2        30.14S
DAGGETT        CLEAR     56  24  29 W7        30.13F
29 PALMS N     CLEAR     58  24  27 CALM      30.20F
NEEDLES        CLEAR     64  22  20 SW8       30.07F

$$

REGIONAL REPORTS

CITY           SKY/WX    TMP DP  RH WIND       PRES   REMARKS
SANTA BARBARA  CLEAR     55  47  74 CALM      30.02F
SANDBERG       CLEAR     64  26  23 NE5       30.25F
MT. WILSON       N/A     59  25  27 MISG        N/A
LAS VEGAS NV   CLEAR     62  27  26 S8        30.12F
PHOENIX AZ     CLEAR     66  31  27 E6        30.04F
TIJUANA        CLEAR     64  41  42 E5        30.08S
ENSENADA NW      N/A     62  32  31 CALM      30.02F

$$

OFFSHORE ISLANDS

CITY           SKY/WX    TMP DP  RH WIND       PRES   REMARKS
CATALINA ARPT  CLEAR     73  30  20 NW7       30.11S
SAN NICOLAS IS CLEAR    N/A N/A N/A W13       30.04F

$$

MARINE AND OFFSHORE BUOY REPORTS

STATION/POSITION SKY/WX   TEMP    WIND        PRES    SWELL
                          AIR SEA DIR/SP/G            HT/PER/DIR
                          (F)     (DEG/KT/KT) (MB)    (FT/S/D)
TANNER BANKS               61 61  270/  8/ 10 1017.8F   5/290/11
S CLEMENTE BASIN           64 65  240/  6/  8 1016.9F   5/210/16
SAN NICOLAS IS.               60                N/A     5/300/11
SO. S. ROSA ISLA           58 60  320/ 16/ 19 1016.5F   3/12
W. S. BARBARA CH           55 60  320/ 17/ 21 1016.8F   5/290/12
S. MONICA BASIN            66 63  330/ 10/ 12 1016.6F   2/280/16
S PEDRO CHANNEL               64                N/A     2/160/15
DANA POINT                    66                N/A     2/180/15
CMP PENDLETON NS              65                N/A     2/220/17
OCEANSIDE OFFSHR              65                N/A     3/210/17
TORREY PINES OTR              66                N/A     2/220/17
MISSION BAY BUOY              66                N/A     3/210/17
SAN DIEGO BAY                                 1017.8S
POINT LOMA SOUTH              65                N/A     3/210/17

$$




USA.gov is the U.S. government's official web portal to all federal, state and local government web resources and services.